Content
SEND FEEDBACK

Daily
Averages
Monthly
Summary
United States of America

NEW YORK - CENTRAL PARK, NEW YORK


Home > North America > United States > New York
Elevation: 14 feet     Latitude: 40 47N     Longitude: 073 58W

WEATHER
 
SELECT A DAY
Number of Records: 152,993;   Date Range: 11/1/95 - 12/18/14
 
SHARE

PRINT THIS DATA

[ ← Previous Day ]
WEATHER ALMANAC - MARCH 15, 2013
[ Next Day → ]
[ °C ]   °F
Weather ElementAverageHighLow
Temperature37.9 °F46.9 °F (7:51 pm)30 °F (5:51 am)
Dewpoint17.6 °F28 °F (8:51 pm)10 °F (1:51 am)
Humidity44 %56 % (10:51 pm)39 % (11:51 am)
Barometer29.85 in29.97 in (7:51 am)29.71 in (5:51 pm)
Wind Speed7.8 mph12.7 mph (2:51 pm)
Wind Gust20.7 mph (1:51 pm)
Weather ElementAverage
Visibility10 mi
Wind DirectionSSE (147 °)

Weather ElementTotal
Precipitation---
Heating Degree Days26.6 (Base 65)
Averaged from 23 records on March 15, 2013
WEATHER CONDITIONS BREAKOUT
WIND DIRECTION BREAKOUT
WEATHER BY HOUR - MARCH 15, 2013
[ °C ]   °F
Local TimeTemperatureDewpointHumidityBarometerVisibilityWind DirectionWind SpeedGust SpeedPrecipitationEventsConditions
1:51 AM32.0 °F10.0 °F40 %29.96 in10.0 miNW (310°)8.1 mphClear
2:51 AM30.9 °F10.0 °F42 %29.96 in10.0 miVariable5.8 mphClear
3:51 AM30.9 °F10.9 °F43 %29.96 in10.0 miVariable4.6 mphClear
4:51 AM30.9 °F10.9 °F43 %29.95 in10.0 miNW (310°)8.1 mphClear
5:51 AM30.0 °F10.9 °F45 %29.95 in10.0 miVariable6.9 mph18.4 mphClear
6:51 AM30.0 °F12.9 °F49 %29.96 in10.0 miVariable4.6 mphClear
7:51 AM30.0 °F12.0 °F47 %29.97 in10.0 miWest (280°)9.2 mphClear
8:51 AM30.9 °F10.0 °F42 %29.96 in10.0 miNorthClear
9:51 AM33.1 °F12.9 °F43 %29.95 in10.0 miVariable5.8 mphPartly Cloudy
10:51 AM33.1 °F12.0 °F42 %29.92 in10.0 miWSW (250°)8.1 mphOvercast
11:51 AM37.0 °F14.0 °F39 %29.89 in10.0 miVariable6.9 mphClear
12:51 PM39.9 °F17.1 °F40 %29.85 in10.0 miVariable3.5 mphOvercast
1:51 PM39.9 °F18.0 °F41 %29.82 in10.0 miWSW (250°)11.5 mph20.7 mphOvercast
2:51 PM41.0 °F19.0 °F41 %29.79 in10.0 miWest (260°)12.7 mph19.6 mphOvercast
3:51 PM43.0 °F21.9 °F43 %29.75 in10.0 miWest (280°)12.7 mph19.6 mphOvercast
4:51 PM44.1 °F21.9 °F42 %29.73 in10.0 miWSW (250°)12.7 mph20.7 mphOvercast
5:51 PM45.0 °F23.0 °F42 %29.71 in10.0 miNorthOvercast
6:51 PM46.0 °F24.1 °F42 %29.72 in10.0 miVariable5.8 mphOvercast
7:51 PM46.9 °F24.1 °F41 %29.73 in10.0 miWNW (290°)6.9 mphOvercast
8:51 PM46.9 °F28.0 °F48 %29.74 in10.0 miWNW (290°)9.2 mph18.4 mphOvercast
9:51 PM46.0 °F27.0 °F47 %29.75 in10.0 miVariable5.8 mphOvercast
10:51 PM43.0 °F28.0 °F56 %29.77 in10.0 miWNW (300°)5.8 mphOvercast
11:51 PM42.1 °F27.0 °F55 %29.78 in10.0 miNW (310°)8.1 mph17.3 mphMostly Cloudy
Hourly data recorded from KNYC, located miles away from New York - Central Park, New York







STORIES FROM OUR PARTNERS